When you browse on this site, cookies collect data to enhance your experience and personalize the content and advertising you see.
Visit our Privacy Policy to learn more. By continuing to use the site, you agree to this use of cookies and data.
  • In Hungary
  • List of Countries
  • For 7 days
  • Water Temperature
  • Weather Map
  • News
  • Weather Widgets
  • user-avatar
    Login

    Hourly Weather Obidowa

    Today, 12 November, Tuesday

    Time Temperature Precipitation Wind Pressure Humidity
    00:00 +1°C° 0 mm 2 mps 684 mmHg 86%
    01:00 +1°C° 0 mm 2 mps 684 mmHg 85%
    02:00 +1°C° 0 mm 2 mps 683 mmHg 86%
    03:00 +1°C° 0 mm 2 mps 683 mmHg 87%
    04:00 +1°C° 0 mm 2 mps 683 mmHg 88%
    05:00 +2°C° 0 mm 2 mps 683 mmHg 87%
    06:00 +2°C° 0 mm 2 mps 683 mmHg 87%
    07:00 +2°C° 0 mm 2 mps 683 mmHg 85%
    08:00 +4°C° 0 mm 2 mps 683 mmHg 83%
    09:00 +5°C° 0 mm 2 mps 683 mmHg 80%
    10:00 +7°C° 0 mm 1 mps 683 mmHg 77%
    11:00 +7°C° 0 mm 2 mps 683 mmHg 77%
    12:00 +7°C° 0 mm 2 mps 683 mmHg 77%
    13:00 +7°C° 0 mm 2 mps 682 mmHg 76%
    14:00 +8°C° 0.1 mm 1 mps 682 mmHg 80%
    15:00 +7°C° 0.1 mm 1 mps 681 mmHg 83%
    16:00 +6°C° 0.1 mm 1 mps 681 mmHg 87%
    17:00 +6°C° 0.7 mm 1 mps 680 mmHg 89%
    18:00 +6°C° 0.7 mm 1 mps 680 mmHg 90%
    19:00 +5°C° 0.7 mm 2 mps 680 mmHg 92%
    20:00 +5°C° 0.3 mm 2 mps 680 mmHg 92%
    21:00 +5°C° 0.3 mm 2 mps 679 mmHg 92%
    22:00 +5°C° 0.3 mm 2 mps 679 mmHg 93%
    23:00 +5°C° 0 mm 2 mps 679 mmHg 93%

    Tomorrow, 13 November, Wednesday

    Time Temperature Precipitation Wind Pressure Humidity
    00:00 +5°C° 0 mm 2 mps 679 mmHg 93%
    01:00 +5°C° 0 mm 2 mps 679 mmHg 93%
    02:00 +6°C° 0.5 mm 2 mps 678 mmHg 93%
    03:00 +6°C° 0.5 mm 2 mps 678 mmHg 94%
    04:00 +6°C° 0.5 mm 2 mps 678 mmHg 95%
    05:00 +7°C° 0.9 mm 2 mps 678 mmHg 95%
    06:00 +7°C° 0.9 mm 2 mps 677 mmHg 95%
    07:00 +7°C° 0.9 mm 2 mps 677 mmHg 96%
    08:00 +7°C° 0.8 mm 2 mps 677 mmHg 94%
    09:00 +8°C° 0.8 mm 3 mps 677 mmHg 92%
    10:00 +9°C° 0.8 mm 3 mps 677 mmHg 89%
    11:00 +10°C° 0.1 mm 3 mps 677 mmHg 83%
    12:00 +10°C° 0.1 mm 3 mps 677 mmHg 77%
    13:00 +11°C° 0.1 mm 3 mps 677 mmHg 71%
    14:00 +10°C° 0 mm 2 mps 677 mmHg 76%
    15:00 +8°C° 0 mm 2 mps 676 mmHg 81%
    16:00 +7°C° 0 mm 2 mps 676 mmHg 86%
    17:00 +7°C° 0.2 mm 2 mps 676 mmHg 88%
    18:00 +7°C° 0.2 mm 2 mps 676 mmHg 90%
    19:00 +7°C° 0.2 mm 2 mps 676 mmHg 92%
    20:00 +7°C° 0.4 mm 2 mps 676 mmHg 92%
    21:00 +7°C° 0.4 mm 3 mps 676 mmHg 91%
    22:00 +8°C° 0.4 mm 3 mps 676 mmHg 91%
    23:00 +8°C° 0.4 mm 3 mps 677 mmHg 92%

    Day after tomorrow, 14 November, Thursday

    Time Temperature Precipitation Wind Pressure Humidity
    00:00 +7°C° 0.4 mm 2 mps 677 mmHg 92%
    01:00 +7°C° 0.4 mm 2 mps 678 mmHg 93%
    02:00 +7°C° 0 mm 2 mps 678 mmHg 94%
    03:00 +7°C° 0 mm 1 mps 678 mmHg 94%
    04:00 +7°C° 0 mm 1 mps 679 mmHg 95%
    05:00 +6°C° 0 mm 1 mps 679 mmHg 95%
    06:00 +6°C° 0 mm 1 mps 680 mmHg 95%
    07:00 +6°C° 0 mm 1 mps 680 mmHg 95%
    08:00 +7°C° 0 mm 1 mps 681 mmHg 92%
    09:00 +7°C° 0 mm 1 mps 681 mmHg 89%
    10:00 +8°C° 0 mm 1 mps 682 mmHg 86%
    11:00 +9°C° 0 mm 1 mps 682 mmHg 83%
    12:00 +10°C° 0 mm 1 mps 682 mmHg 80%
    13:00 +9°C° 0 mm 2 mps 682 mmHg 77%
    14:00 +9°C° 0 mm 2 mps 682 mmHg 81%
    15:00 +9°C° 0 mm 1 mps 682 mmHg 85%
    16:00 +8°C° 0 mm 1 mps 682 mmHg 89%
    17:00 +8°C° 0 mm 1 mps 682 mmHg 90%
    18:00 +7°C° 0 mm 1 mps 682 mmHg 91%
    19:00 +7°C° 0 mm 1 mps 682 mmHg 92%
    20:00 +6°C° 0 mm 2 mps 682 mmHg 93%
    21:00 +6°C° 0 mm 2 mps 682 mmHg 93%
    22:00 +5°C° 0 mm 2 mps 682 mmHg 94%
    23:00 +5°C° 0 mm 2 mps 682 mmHg 93%

    15 November, Friday

    Time Temperature Precipitation Wind Pressure Humidity
    00:00 +5°C° 0 mm 2 mps 682 mmHg 93%
    01:00 +5°C° 0 mm 2 mps 682 mmHg 93%
    02:00 +5°C° 0 mm 2 mps 682 mmHg 93%
    03:00 +5°C° 0 mm 2 mps 683 mmHg 93%
    04:00 +5°C° 0 mm 2 mps 683 mmHg 93%
    05:00 +5°C° 0 mm 2 mps 683 mmHg 93%
    06:00 +5°C° 0 mm 2 mps 683 mmHg 93%
    07:00 +5°C° 0 mm 2 mps 683 mmHg 93%
    08:00 +6°C° 0 mm 2 mps 684 mmHg 89%
    09:00 +8°C° 0 mm 2 mps 684 mmHg 85%
    10:00 +10°C° 0 mm 2 mps 684 mmHg 81%
    11:00 +10°C° 0 mm 3 mps 685 mmHg 78%
    12:00 +11°C° 0 mm 3 mps 685 mmHg 74%
    13:00 +12°C° 0 mm 3 mps 685 mmHg 70%
    14:00 +11°C° 0 mm 3 mps 684 mmHg 76%
    15:00 +9°C° 0 mm 2 mps 684 mmHg 82%
    16:00 +8°C° 0 mm 2 mps 684 mmHg 88%
    17:00 +7°C° 0 mm 2 mps 684 mmHg 89%
    18:00 +7°C° 0 mm 2 mps 684 mmHg 90%
    19:00 +7°C° 0 mm 2 mps 684 mmHg 91%
    20:00 +7°C° 0 mm 2 mps 684 mmHg 91%
    21:00 +7°C° 0 mm 2 mps 685 mmHg 90%
    22:00 +7°C° 0 mm 2 mps 685 mmHg 90%
    23:00 +7°C° 0 mm 2 mps 685 mmHg 90%

    16 November, Saturday

    Time Temperature Precipitation Wind Pressure Humidity
    00:00 +7°C° 0 mm 2 mps 685 mmHg 90%
    01:00 +6°C° 0 mm 2 mps 685 mmHg 91%
    02:00 +6°C° 0 mm 2 mps 685 mmHg 90%
    03:00 +6°C° 0 mm 2 mps 685 mmHg 90%
    04:00 +6°C° 0 mm 2 mps 685 mmHg 89%
    05:00 +6°C° 0 mm 2 mps 685 mmHg 89%
    06:00 +6°C° 0 mm 2 mps 685 mmHg 90%
    07:00 +6°C° 0 mm 2 mps 685 mmHg 90%
    08:00 +7°C° 0 mm 2 mps 686 mmHg 85%
    09:00 +8°C° 0 mm 2 mps 687 mmHg 81%
    10:00 +10°C° 0 mm 2 mps 687 mmHg 76%
    11:00 +10°C° 0 mm 2 mps 687 mmHg 76%
    12:00 +10°C° 0 mm 2 mps 687 mmHg 76%
    13:00 +10°C° 0 mm 2 mps 687 mmHg 76%
    14:00 +9°C° 0 mm 2 mps 687 mmHg 80%
    15:00 +10°C° 0 mm 1 mps 687 mmHg 83%
    16:00 +9°C° 0 mm 1 mps 687 mmHg 86%
    17:00 +8°C° 0 mm 1 mps 687 mmHg 87%
    18:00 +8°C° 0 mm 1 mps 687 mmHg 87%
    19:00 +8°C° 0 mm 1 mps 687 mmHg 88%
    20:00 +8°C° 0 mm 1 mps 687 mmHg 87%
    21:00 +8°C° 0 mm 1 mps 687 mmHg 86%
    22:00 +8°C° 0 mm 1 mps 687 mmHg 86%
    23:00 +7°C° 0 mm 1 mps 687 mmHg 85%

    17 November, Sunday

    Time Temperature Precipitation Wind Pressure Humidity
    00:00 +7°C° 0 mm 1 mps 687 mmHg 85%
    01:00 +7°C° 0 mm 1 mps 687 mmHg 85%
    02:00 +7°C° 0 mm 1 mps 686 mmHg 84%
    03:00 +7°C° 0 mm 1 mps 686 mmHg 84%
    04:00 +6°C° 0 mm 1 mps 686 mmHg 84%
    05:00 +6°C° 0 mm 1 mps 685 mmHg 83%
    06:00 +5°C° 0 mm 2 mps 685 mmHg 83%
    07:00 +5°C° 0 mm 2 mps 685 mmHg 82%
    08:00 +6°C° 0 mm 2 mps 685 mmHg 79%
    09:00 +8°C° 0 mm 1 mps 686 mmHg 75%
    10:00 +10°C° 0 mm 1 mps 686 mmHg 72%
    11:00 +10°C° 0 mm 1 mps 686 mmHg 70%
    12:00 +11°C° 0 mm 1 mps 686 mmHg 69%
    13:00 +11°C° 0 mm 1 mps 685 mmHg 68%
    14:00 +10°C° 0 mm 1 mps 685 mmHg 73%
    15:00 +9°C° 0 mm 1 mps 685 mmHg 78%
    16:00 +8°C° 0 mm 1 mps 684 mmHg 83%
    17:00 +7°C° 0 mm 1 mps 684 mmHg 83%
    18:00 +6°C° 0 mm 2 mps 684 mmHg 83%
    19:00 +5°C° 0 mm 2 mps 684 mmHg 84%
    20:00 +5°C° 0 mm 2 mps 684 mmHg 83%
    21:00 +5°C° 0 mm 2 mps 684 mmHg 82%
    22:00 +5°C° 0 mm 2 mps 684 mmHg 81%
    23:00 +5°C° 0 mm 2 mps 684 mmHg 81%
    Show more